Location: Bagnolo San Vito
(45.0833°N, 10.8833°E)
Time: 00:01:08
(UTC+00:00)

Cosmos 1943 Rocket - Pass Details

Date: 03 March 2021
Orbit: 811 x 844 km, 71.0° (Epoch: 17 April)

Event Time Altitude Azimuth Distance (km) Brightness Sun altitude
Rises 20:44:32 0° 339° (NNW) 3,414 6.0 -37.6°
Reaches altitude 10° 20:47:13 10° 348° (NNW) 2,474 5.1 -38.0°
Enters shadow 20:48:41 17° 357° (N) 2,002 4.4 -38.2°
